When you browse on this site, cookies collect data to enhance your experience and personalize the content and advertising you see.
Visit our Privacy Policy to learn more. By continuing to use the site, you agree to this use of cookies and data.
  • In Switzerland
  • List of Countries
  • For 7 days
  • Water Temperature
  • Satellite Maps
  • Weather Map
  • Weather Widgets
  • user-avatar
    Login

    Hourly Weather Seevetal

    Today, 26 May, Sunday

    Time Temperature Precipitation Wind Pressure Humidity
    00:00 +7°C° 0 mm 2 mps 757 mmHg 96%
    01:00 +7°C° 0 mm 2 mps 757 mmHg 96%
    02:00 +7°C° 0 mm 2 mps 756 mmHg 95%
    03:00 +7°C° 0 mm 2 mps 756 mmHg 94%
    04:00 +8°C° 0 mm 2 mps 756 mmHg 94%
    05:00 +9°C° 0 mm 3 mps 755 mmHg 89%
    06:00 +11°C° 0 mm 4 mps 755 mmHg 85%
    07:00 +12°C° 0 mm 5 mps 754 mmHg 80%
    08:00 +13°C° 0 mm 5 mps 754 mmHg 76%
    09:00 +14°C° 0 mm 6 mps 753 mmHg 71%
    10:00 +15°C° 0 mm 6 mps 753 mmHg 67%
    11:00 +15°C° 0.1 mm 6 mps 753 mmHg 72%
    12:00 +15°C° 0.1 mm 5 mps 752 mmHg 76%
    13:00 +15°C° 0.1 mm 5 mps 752 mmHg 81%
    14:00 +16°C° 0.2 mm 5 mps 752 mmHg 79%
    15:00 +19°C° 0.2 mm 6 mps 751 mmHg 78%
    16:00 +20°C° 0.2 mm 6 mps 751 mmHg 76%
    17:00 +19°C° 0.7 mm 6 mps 751 mmHg 81%
    18:00 +17°C° 0.7 mm 5 mps 750 mmHg 86%
    19:00 +16°C° 0.7 mm 5 mps 750 mmHg 91%
    20:00 +17°C° 1.1 mm 4 mps 750 mmHg 92%
    21:00 +15°C° 1.1 mm 4 mps 750 mmHg 94%
    22:00 +15°C° 1.1 mm 4 mps 750 mmHg 96%
    23:00 +14°C° 1.7 mm 4 mps 750 mmHg 96%

    Tomorrow, 27 May, Monday

    Time Temperature Precipitation Wind Pressure Humidity
    00:00 +14°C° 1.7 mm 4 mps 749 mmHg 97%
    01:00 +14°C° 1.7 mm 4 mps 749 mmHg 97%
    02:00 +13°C° 0.4 mm 4 mps 749 mmHg 96%
    03:00 +13°C° 0.4 mm 4 mps 749 mmHg 96%
    04:00 +12°C° 0.4 mm 4 mps 749 mmHg 96%
    05:00 +12°C° 0 mm 4 mps 749 mmHg 94%
    06:00 +12°C° 0 mm 4 mps 750 mmHg 91%
    07:00 +12°C° 0 mm 5 mps 750 mmHg 89%
    08:00 +13°C° 0.1 mm 5 mps 750 mmHg 82%
    09:00 +14°C° 0.1 mm 5 mps 751 mmHg 75%
    10:00 +15°C° 0.1 mm 5 mps 751 mmHg 68%
    11:00 +15°C° 0.1 mm 5 mps 751 mmHg 66%
    12:00 +15°C° 0.1 mm 5 mps 751 mmHg 63%
    13:00 +16°C° 0.1 mm 5 mps 751 mmHg 61%
    14:00 +16°C° 0.1 mm 5 mps 751 mmHg 61%
    15:00 +16°C° 0.1 mm 5 mps 751 mmHg 61%
    16:00 +16°C° 0.1 mm 5 mps 751 mmHg 61%
    17:00 +15°C° 0 mm 4 mps 751 mmHg 65%
    18:00 +14°C° 0 mm 4 mps 751 mmHg 69%
    19:00 +13°C° 0 mm 3 mps 751 mmHg 73%
    20:00 +12°C° 0 mm 3 mps 751 mmHg 76%
    21:00 +12°C° 0 mm 2 mps 752 mmHg 80%
    22:00 +10°C° 0 mm 2 mps 752 mmHg 84%
    23:00 +9°C° 0 mm 2 mps 752 mmHg 88%

    Day after tomorrow, 28 May, Tuesday

    Time Temperature Precipitation Wind Pressure Humidity
    00:00 +8°C° 0 mm 2 mps 752 mmHg 92%
    01:00 +8°C° 0 mm 1 mps 752 mmHg 96%
    02:00 +7°C° 0 mm 1 mps 751 mmHg 96%
    03:00 +7°C° 0 mm 1 mps 751 mmHg 96%
    04:00 +6°C° 0 mm 0 mps 751 mmHg 96%
    05:00 +7°C° 0 mm 0 mps 751 mmHg 90%
    06:00 +9°C° 0 mm 1 mps 751 mmHg 85%
    07:00 +11°C° 0 mm 1 mps 751 mmHg 80%
    08:00 +12°C° 0 mm 0 mps 751 mmHg 73%
    09:00 +14°C° 0 mm 0 mps 751 mmHg 67%
    10:00 +16°C° 0 mm 0 mps 751 mmHg 61%
    11:00 +16°C° 0.4 mm 1 mps 751 mmHg 67%
    12:00 +15°C° 0.4 mm 1 mps 751 mmHg 74%
    13:00 +14°C° 0.4 mm 2 mps 751 mmHg 80%
    14:00 +14°C° 0.4 mm 2 mps 751 mmHg 82%
    15:00 +14°C° 0.4 mm 3 mps 750 mmHg 84%
    16:00 +14°C° 0.4 mm 3 mps 750 mmHg 85%
    17:00 +13°C° 0.7 mm 3 mps 751 mmHg 88%
    18:00 +12°C° 0.7 mm 3 mps 751 mmHg 91%
    19:00 +11°C° 0.7 mm 4 mps 751 mmHg 94%
    20:00 +10°C° 0.3 mm 3 mps 752 mmHg 94%
    21:00 +10°C° 0.3 mm 3 mps 752 mmHg 94%
    22:00 +9°C° 0.3 mm 3 mps 752 mmHg 95%
    23:00 +8°C° 0.1 mm 3 mps 753 mmHg 95%

    29 May, Wednesday

    Time Temperature Precipitation Wind Pressure Humidity
    00:00 +8°C° 0.1 mm 3 mps 753 mmHg 96%
    01:00 +8°C° 0.1 mm 3 mps 753 mmHg 96%
    02:00 +7°C° 0 mm 3 mps 754 mmHg 95%
    03:00 +7°C° 0 mm 3 mps 754 mmHg 94%
    04:00 +7°C° 0 mm 3 mps 755 mmHg 94%
    05:00 +7°C° 0 mm 3 mps 755 mmHg 89%
    06:00 +7°C° 0 mm 3 mps 756 mmHg 85%
    07:00 +8°C° 0 mm 3 mps 756 mmHg 80%
    08:00 +9°C° 0 mm 3 mps 757 mmHg 71%
    09:00 +11°C° 0 mm 3 mps 758 mmHg 63%
    10:00 +12°C° 0 mm 3 mps 758 mmHg 54%
    11:00 +13°C° 0 mm 3 mps 758 mmHg 53%
    12:00 +13°C° 0 mm 3 mps 759 mmHg 52%
    13:00 +14°C° 0 mm 3 mps 759 mmHg 51%
    14:00 +13°C° 0 mm 3 mps 759 mmHg 51%
    15:00 +13°C° 0 mm 3 mps 759 mmHg 52%
    16:00 +13°C° 0 mm 3 mps 760 mmHg 53%
    17:00 +12°C° 0 mm 3 mps 760 mmHg 56%
    18:00 +13°C° 0 mm 2 mps 760 mmHg 60%
    19:00 +12°C° 0 mm 2 mps 760 mmHg 63%
    20:00 +9°C° 0 mm 2 mps 760 mmHg 70%
    21:00 +8°C° 0 mm 1 mps 761 mmHg 77%
    22:00 +7°C° 0 mm 1 mps 761 mmHg 84%
    23:00 +6°C° 0 mm 1 mps 761 mmHg 85%

    30 May, Thursday

    Time Temperature Precipitation Wind Pressure Humidity
    00:00 +6°C° 0 mm 1 mps 762 mmHg 86%
    01:00 +5°C° 0 mm 1 mps 762 mmHg 87%
    02:00 +5°C° 0 mm 1 mps 762 mmHg 88%
    03:00 +5°C° 0 mm 1 mps 762 mmHg 89%
    04:00 +5°C° 0 mm 1 mps 762 mmHg 89%
    05:00 +7°C° 0 mm 1 mps 762 mmHg 83%
    06:00 +7°C° 0 mm 2 mps 762 mmHg 77%
    07:00 +9°C° 0 mm 2 mps 762 mmHg 72%
    08:00 +11°C° 0 mm 3 mps 762 mmHg 67%
    09:00 +12°C° 0 mm 3 mps 762 mmHg 62%
    10:00 +14°C° 0 mm 3 mps 762 mmHg 58%
    11:00 +14°C° 0 mm 3 mps 761 mmHg 58%
    12:00 +14°C° 0 mm 3 mps 761 mmHg 58%
    13:00 +16°C° 0 mm 3 mps 761 mmHg 59%
    14:00 +14°C° 0.5 mm 3 mps 761 mmHg 68%
    15:00 +13°C° 0.5 mm 3 mps 761 mmHg 77%
    16:00 +13°C° 0.5 mm 3 mps 761 mmHg 86%
    17:00 +12°C° 0.7 mm 3 mps 761 mmHg 89%
    18:00 +11°C° 0.7 mm 3 mps 761 mmHg 91%
    19:00 +10°C° 0.7 mm 3 mps 761 mmHg 94%
    20:00 +9°C° 0.2 mm 2 mps 761 mmHg 94%
    21:00 +9°C° 0.2 mm 2 mps 761 mmHg 95%
    22:00 +8°C° 0.2 mm 2 mps 761 mmHg 96%
    23:00 +8°C° 0.1 mm 2 mps 761 mmHg 96%

    31 May, Friday

    Time Temperature Precipitation Wind Pressure Humidity
    00:00 +8°C° 0.1 mm 2 mps 761 mmHg 96%
    01:00 +8°C° 0.1 mm 2 mps 761 mmHg 97%
    02:00 +9°C° 0.4 mm 1 mps 762 mmHg 97%
    03:00 +9°C° 0.4 mm 1 mps 762 mmHg 97%
    04:00 +9°C° 0.4 mm 1 mps 762 mmHg 97%
    05:00 +8°C° 0.1 mm 2 mps 762 mmHg 95%
    06:00 +9°C° 0.1 mm 2 mps 763 mmHg 92%
    07:00 +9°C° 0.1 mm 2 mps 763 mmHg 90%
    08:00 +12°C° 0 mm 2 mps 764 mmHg 77%
    09:00 +13°C° 0 mm 2 mps 764 mmHg 65%
    10:00 +15°C° 0 mm 2 mps 765 mmHg 53%
    11:00 +16°C° 0 mm 1 mps 765 mmHg 48%
    12:00 +19°C° 0 mm 1 mps 765 mmHg 43%
    13:00 +21°C° 0 mm 1 mps 765 mmHg 38%
    14:00 +20°C° 0 mm 1 mps 765 mmHg 38%
    15:00 +20°C° 0 mm 1 mps 765 mmHg 38%
    16:00 +20°C° 0 mm 1 mps 765 mmHg 38%
    17:00 +18°C° 0 mm 1 mps 765 mmHg 48%
    18:00 +16°C° 0 mm 2 mps 765 mmHg 57%
    19:00 +14°C° 0 mm 2 mps 765 mmHg 66%
    20:00 +13°C° 0.1 mm 2 mps 765 mmHg 72%
    21:00 +12°C° 0.1 mm 2 mps 765 mmHg 79%
    22:00 +10°C° 0.1 mm 2 mps 765 mmHg 85%
    23:00 +10°C° 0 mm 2 mps 765 mmHg 87%
    Show more